Regional Weather Roundup
Issued by NWS

Home | Current Version | Previous Version | Text Only | Print | Product List | Glossary Off
Versions: 1 2 3 4 5 6 7 8 9 10 11 12 13 14 15 16 17 18 19 20 21 22 23 24 25 26 27 28 29 30 31 32 33 34 35 36 37 38 39 40 41 42 43 44 45 46 47 48 49 50

000
ASUS45 KBOI 020210
RWRID
WEATHER ROUNDUP FOR IDAHO
NATIONAL WEATHER SERVICE BOISE ID
800 PM MDT FRI AUG 01 2014

NOTE: "FAIR" INDICATES FEW OR NO CLOUDS BELOW 12000 FEET
WITH NO SIGNIFICANT WEATHER AND/OR OBSTRUCTIONS TO VISIBILITY

IDZ012-014-020300-
SOUTHWEST IDAHO


CITY           SKY/WX    TMP DP  RH WIND       PRES   REMARKS
BOISE          CLOUDY    89  52  28 SW14      29.98R
CALDWELL       NOT AVBL
MOUNTAIN HOME  CLOUDY    93  41  16 NW7       29.97S
$$

IDZ016-017-020300-
SOUTHCENTRAL IDAHO


CITY           SKY/WX    TMP DP  RH WIND       PRES   REMARKS
BURLEY         PTCLDY    86  44  23 NE7       30.06R
JEROME         PTCLDY    84  58  40 NW6       30.06R
TWIN FALLS     PTCLDY    89  45  21 NW5       30.06R
$$

IDZ019>023-020300-
SOUTHEAST IDAHO


CITY           SKY/WX    TMP DP  RH WIND       PRES   REMARKS
IDAHO FALLS    CLOUDY    73  50  44 NE20G31   30.19R
POCATELLO      PTCLDY    83  44  25 E10       30.12S
REXBURG        CLOUDY    68  51  54 E10G26    30.20F
$$

IDZ006-010-011-018-031-032-020300-
CENTRAL IDAHO MOUNTAINS


CITY           SKY/WX    TMP DP  RH WIND       PRES   REMARKS
MCCALL         SUNNY     81  41  24 S5        30.13R
HAILEY         PTCLDY    72  59  64 W6        30.18F
STANLEY          N/A     75  40  28 NE15      30.26R
SALMON         CLOUDY    70  54  56 S6        30.15R
CHALLIS        CLOUDY    69  53  56 NW8       30.23R
$$

IDZ002-004-006-007-026-020300-
NORTHERN IDAHO


CITY           SKY/WX    TMP DP  RH WIND       PRES   REMARKS
LEWISTON       MOSUNNY   98  42  14 E7        29.88S HX  94
LOWELL           N/A     78  60  53 CALM      29.98S
COEUR D`ALENE  PTSUNNY   91  46  21 E7        29.95S
MULLAN PASS    CLOUDY    62  43  49 SE8       30.29S
$$



USA.gov is the U.S. government's official web portal to all federal, state and local government web resources and services.